This is the latest recevied weather packets stored in our database for station/object OK2ARM-6. If no packets are shown the sender has not sent any weather packets the latest 10 day(s).
| Time | Temp. | Humidity | Pressure | Rain* | Wind** | Luminosity | Snow |
|---|---|---|---|---|---|---|---|
| 1777420618 | 2.22° C | 100% | 1023.4 hPa | - | - | - | - |
| 1777413274 | 5.56° C | 100% | 1022.9 hPa | - | - | - | - |
| 1777408329 | 7.78° C | 100% | 1022.7 hPa | - | - | - | - |
| 1777404130 | 10° C | 100% | 1022.1 hPa | - | - | - | - |
| 1777403530 | 10° C | 100% | 1021.9 hPa | - | - | - | - |
| 1777398899 | 13.33° C | 100% | 1020.9 hPa | - | - | - | - |
| 1777396355 | 16.11° C | 100% | 1020.4 hPa | - | - | - | - |
| 1777395155 | 16.67° C | 100% | 1020.1 hPa | - | - | - | - |
| 1777389611 | 19.44° C | 100% | 1019.7 hPa | - | - | - | - |
| 1777384668 | 22.22° C | 100% | 1020.2 hPa | - | - | - | - |
| 1777382724 | 23.33° C | 100% | 1020.4 hPa | - | - | - | - |
| 1777376580 | 23.33° C | 100% | 1020.9 hPa | - | - | - | - |
| 1777373436 | 20° C | 100% | 1021.3 hPa | - | - | - | - |
| 1777370893 | 20° C | 100% | 1021.3 hPa | - | - | - | - |
| 1777366405 | 14.44° C | 100% | 1021.6 hPa | - | - | - | - |
| 1777365205 | 14.44° C | 100% | 1021.6 hPa | - | - | - | - |
| 1777364605 | 13.89° C | 100% | 1021.6 hPa | - | - | - | - |
| 1777364005 | 13.89° C | 100% | 1021.6 hPa | - | - | - | - |
| 1777363406 | 13.33° C | 100% | 1021.5 hPa | - | - | - | - |
| 1777360717 | 11.67° C | 100% | 1021.3 hPa | - | - | - | - |
| 1777360117 | 11.11° C | 100% | 1021.3 hPa | - | - | - | - |
| 1777341086 | 0.56° C | 100% | 1021 hPa | - | - | - | - |
| 1777337486 | 0.56° C | 100% | 1021 hPa | - | - | - | - |
| 1777336886 | 1.11° C | 100% | 1021.1 hPa | - | - | - | - |
| 1777332086 | 2.22° C | 100% | 1021 hPa | - | - | - | - |
* Rain since midnight (hover to see other rain measurements)
** Current wind speed in m/s (hover to see current wind gust speed)